Location: Nakusp
(50.2330°N, 117.8000°W)
Time: 18:34:58
(UTC-08:00)

Cosmos 1939 Rocket - Visible Passes

Search period start: 22 February 2017 00:00
Search period end: 04 March 2017 00:00
Orbit: 533 x 587 km, 97.5° (Epoch: 21 February)

Date Brightness Start Highest point End Pass type
(mag) Time Alt. Az. Time Alt. Az. Time Alt. Az.
22 Feb 4.8 18:27:33 12° ENE 18:27:34 12° ENE 18:29:15 10° NNE visible
22 Feb 4.1 20:03:28 36° NNW 20:03:28 36° NNW 20:05:53 10° NNW visible
23 Feb 4.8 18:26:15 12° ENE 18:26:27 12° ENE 18:28:04 10° NNE visible
23 Feb 3.9 20:02:10 39° NNW 20:02:10 39° NNW 20:04:46 10° NNW visible
24 Feb 4.8 18:24:56 12° ENE 18:25:20 12° ENE 18:26:53 10° NNE visible
24 Feb 3.7 20:00:51 44° NNW 20:00:51 44° NNW 20:03:39 10° NNW visible
25 Feb 4.8 18:23:37 11° ENE 18:24:13 12° ENE 18:25:41 10° NE visible
25 Feb 3.5 19:59:33 49° NNW 19:59:33 49° NNW 20:02:31 10° NNW visible
26 Feb 4.8 18:22:19 11° ENE 18:23:06 12° ENE 18:24:30 10° NE visible
26 Feb 3.3 19:58:14 54° N 19:58:14 54° N 20:01:24 10° NNW visible
27 Feb 4.8 18:21:01 11° ENE 18:21:59 11° NE 18:23:17 10° NE visible
27 Feb 3.1 19:56:55 60° N 19:56:55 60° N 20:00:16 10° NNW visible
28 Feb 4.9 18:19:42 10° ENE 18:20:51 11° NE 18:22:04 10° NE visible
28 Feb 3.0 19:55:37 66° N 19:55:37 66° N 19:59:09 10° NNW visible
28 Feb 6.1 21:31:31 10° WNW 21:31:31 10° WNW 21:31:41 10° WNW visible
01 Mar 4.9 18:18:38 10° ENE 18:19:45 11° NE 18:20:51 10° NE visible
01 Mar 2.8 19:54:18 73° NNE 19:54:18 73° NNE 19:58:00 10° NNW visible
01 Mar 6.1 21:30:13 11° WNW 21:30:13 11° WNW 21:30:43 10° WNW visible
02 Mar 4.9 18:17:38 10° ENE 18:18:37 11° NE 18:19:37 10° NE visible
02 Mar 2.7 19:52:59 77° NE 19:52:59 77° NE 19:56:53 10° N visible
02 Mar 6.0 21:28:54 11° WNW 21:28:54 11° WNW 21:29:44 10° WNW visible
03 Mar 4.9 18:16:38 10° ENE 18:17:30 11° NE 18:18:22 10° NE visible
03 Mar 2.7 19:51:41 77° ENE 19:51:42 77° ENE 19:55:45 10° N visible
03 Mar 5.9 21:27:35 12° W 21:27:35 12° W 21:28:44 10° WNW visible
